Location: Baumgarten
(49.0970°N, 12.7493°E)
Time: 01:11:02
(UTC+00:00)

Helios 1B rocket - Pass Details

Date: 05 July 2020
Orbit: 574 x 584 km, 98.1° (Epoch: 11 August)

Event Time Altitude Azimuth Distance (km) Brightness Sun altitude
Rises 23:48:13 0° 14° (NNE) 2,817 7.7 -17.8°
Reaches altitude 10° 23:50:23 10° 15° (NNE) 1,911 6.4 -17.8°
Maximum altitude 23:54:32 86° 106° (ESE) 589 2.4 -17.7°
Enters shadow 23:56:02 39° 192° (SSW) 882 2.8 -17.6°
